TimeCST,TemperatureF,Dew PointF,Humidity,Sea Level PressureIn,VisibilityMPH,Wind Direction,Wind SpeedMPH,Gust SpeedMPH,PrecipitationIn,Events,Conditions,WindDirDegrees,DateUTC
12:15 AM,39.2,32.0,75,30.29,10.0,Calm,Calm,-,N/A,,Clear,0,2012-11-18 06:15:00
12:35 AM,41.0,32.0,70,30.28,10.0,Calm,Calm,-,N/A,,Clear,0,2012-11-18 06:35:00
12:55 AM,39.2,32.0,75,30.29,10.0,Calm,Calm,-,N/A,,Clear,0,2012-11-18 06:55:00
1:15 AM,39.2,32.0,75,30.29,10.0,Calm,Calm,-,N/A,,Clear,0,2012-11-18 07:15:00
1:35 AM,41.0,32.0,70,30.29,10.0,ESE,3.5,-,N/A,,Clear,120,2012-11-18 07:35:00
1:55 AM,39.2,32.0,75,30.29,10.0,SE,3.5,-,N/A,,Clear,140,2012-11-18 07:55:00
2:15 AM,35.6,32.0,87,30.29,10.0,SE,3.5,-,N/A,,Clear,140,2012-11-18 08:15:00
2:35 AM,35.6,32.0,87,30.29,10.0,Calm,Calm,-,N/A,,Clear,0,2012-11-18 08:35:00
2:55 AM,33.8,30.2,87,30.29,10.0,Calm,Calm,-,N/A,,Clear,0,2012-11-18 08:55:00
3:15 AM,33.8,32.0,93,30.28,10.0,Calm,Calm,-,N/A,,Clear,0,2012-11-18 09:15:00
3:35 AM,35.6,32.0,87,30.28,10.0,Calm,Calm,-,N/A,,Clear,0,2012-11-18 09:35:00
4:15 AM,35.6,32.0,87,30.27,10.0,SE,3.5,-,N/A,,Clear,130,2012-11-18 10:15:00
4:35 AM,37.4,32.0,81,30.27,10.0,ESE,3.5,-,N/A,,Clear,120,2012-11-18 10:35:00
4:55 AM,37.4,32.0,81,30.27,10.0,SE,3.5,-,N/A,,Clear,130,2012-11-18 10:55:00
5:15 AM,39.2,32.0,75,30.27,10.0,ESE,3.5,-,N/A,,Clear,110,2012-11-18 11:15:00
5:35 AM,39.2,32.0,75,30.27,10.0,ESE,4.6,-,N/A,,Clear,120,2012-11-18 11:35:00
5:55 AM,39.2,32.0,75,30.27,10.0,ESE,4.6,-,N/A,,Clear,120,2012-11-18 11:55:00
6:15 AM,39.2,32.0,75,30.27,10.0,ESE,4.6,-,N/A,,Clear,120,2012-11-18 12:15:00
6:35 AM,37.4,32.0,81,30.27,10.0,SE,4.6,-,N/A,,Clear,130,2012-11-18 12:35:00
6:55 AM,37.4,32.0,81,30.27,10.0,ESE,3.5,-,N/A,,Clear,120,2012-11-18 12:55:00
7:15 AM,37.4,32.0,81,30.27,10.0,SE,4.6,-,N/A,,Clear,130,2012-11-18 13:15:00
7:35 AM,37.4,32.0,81,30.27,10.0,SE,3.5,-,N/A,,Clear,130,2012-11-18 13:35:00
7:55 AM,39.2,32.0,75,30.27,10.0,ESE,5.8,-,N/A,,Clear,120,2012-11-18 13:55:00
8:15 AM,41.0,32.0,70,30.27,10.0,ESE,4.6,-,N/A,,Clear,120,2012-11-18 14:15:00
8:35 AM,41.0,32.0,70,30.27,10.0,SE,5.8,-,N/A,,Clear,130,2012-11-18 14:35:00
8:55 AM,42.8,32.0,66,30.27,10.0,SE,4.6,-,N/A,,Clear,140,2012-11-18 14:55:00
9:15 AM,44.6,32.0,61,30.28,10.0,SSE,8.1,-,N/A,,Clear,150,2012-11-18 15:15:00
9:35 AM,46.4,32.0,57,30.27,10.0,SSE,6.9,-,N/A,,Clear,150,2012-11-18 15:35:00
9:55 AM,46.4,32.0,57,30.27,10.0,SSE,9.2,-,N/A,,Clear,160,2012-11-18 15:55:00
10:15 AM,50.0,33.8,54,30.27,10.0,SSE,8.1,-,N/A,,Clear,150,2012-11-18 16:15:00
10:35 AM,51.8,33.8,50,30.27,10.0,SSE,9.2,-,N/A,,Clear,160,2012-11-18 16:35:00
10:55 AM,53.6,32.0,44,30.26,10.0,SSE,9.2,-,N/A,,Clear,160,2012-11-18 16:55:00
11:15 AM,55.4,33.8,44,30.25,10.0,South,9.2,-,N/A,,Clear,170,2012-11-18 17:15:00
11:35 AM,57.2,32.0,38,30.25,10.0,South,12.7,16.1,N/A,,Clear,180,2012-11-18 17:35:00
11:55 AM,59.0,33.8,39,30.23,10.0,South,11.5,-,N/A,,Clear,180,2012-11-18 17:55:00
12:15 PM,59.0,33.8,39,30.22,10.0,South,16.1,-,N/A,,Clear,170,2012-11-18 18:15:00
12:35 PM,59.0,33.8,39,30.22,10.0,SSE,10.4,-,N/A,,Clear,160,2012-11-18 18:35:00
1:15 PM,60.8,33.8,36,30.20,10.0,SSW,10.4,-,N/A,,Clear,210,2012-11-18 19:15:00
1:35 PM,60.8,33.8,36,30.19,10.0,SSE,10.4,17.3,N/A,,Clear,160,2012-11-18 19:35:00
1:55 PM,60.8,33.8,36,30.18,10.0,South,9.2,-,N/A,,Clear,170,2012-11-18 19:55:00
2:15 PM,60.8,33.8,36,30.18,10.0,South,13.8,18.4,N/A,,Clear,170,2012-11-18 20:15:00
2:35 PM,60.8,35.6,39,30.17,10.0,SSE,10.4,-,N/A,,Clear,150,2012-11-18 20:35:00
2:55 PM,60.8,33.8,36,30.17,10.0,South,9.2,17.3,N/A,,Clear,170,2012-11-18 20:55:00
3:15 PM,60.8,33.8,36,30.15,10.0,SE,9.2,-,N/A,,Clear,140,2012-11-18 21:15:00
3:35 PM,60.8,33.8,36,30.15,10.0,SE,9.2,-,N/A,,Clear,140,2012-11-18 21:35:00
3:55 PM,60.8,33.8,36,30.17,10.0,SSE,6.9,-,N/A,,Clear,150,2012-11-18 21:55:00
4:15 PM,59.0,35.6,42,30.15,10.0,SE,5.8,-,N/A,,Clear,140,2012-11-18 22:15:00
4:35 PM,59.0,35.6,42,30.16,10.0,SE,4.6,-,N/A,,Clear,140,2012-11-18 22:35:00
4:55 PM,59.0,35.6,42,30.17,10.0,SE,3.5,-,N/A,,Clear,140,2012-11-18 22:55:00
5:15 PM,57.2,35.6,44,30.17,10.0,SE,4.6,-,N/A,,Clear,140,2012-11-18 23:15:00
5:35 PM,57.2,35.6,44,30.17,10.0,SE,5.8,-,N/A,,Clear,140,2012-11-18 23:35:00
6:35 PM,55.4,33.8,44,30.17,10.0,SE,3.5,-,N/A,,Clear,130,2012-11-19 00:35:00
6:55 PM,55.4,33.8,44,30.17,10.0,SE,4.6,-,N/A,,Clear,130,2012-11-19 00:55:00
7:15 PM,55.4,33.8,44,30.17,10.0,SE,4.6,-,N/A,,Clear,130,2012-11-19 01:15:00
7:35 PM,55.4,33.8,44,30.18,10.0,ESE,3.5,-,N/A,,Clear,120,2012-11-19 01:35:00
7:55 PM,53.6,33.8,47,30.18,10.0,SE,4.6,-,N/A,,Mostly Cloudy,130,2012-11-19 01:55:00
8:15 PM,55.4,33.8,44,30.17,10.0,SE,6.9,-,N/A,,Overcast,130,2012-11-19 02:15:00
8:35 PM,55.4,33.8,44,30.17,10.0,ESE,5.8,-,N/A,,Mostly Cloudy,120,2012-11-19 02:35:00
8:55 PM,55.4,33.8,44,30.17,10.0,ESE,5.8,-,N/A,,Overcast,120,2012-11-19 02:55:00
9:15 PM,55.4,33.8,44,30.17,10.0,SE,8.1,-,N/A,,Overcast,130,2012-11-19 03:15:00
9:35 PM,55.4,32.0,41,30.17,10.0,SE,6.9,-,N/A,,Overcast,130,2012-11-19 03:35:00
9:55 PM,55.4,32.0,41,30.17,10.0,SE,9.2,-,N/A,,Overcast,130,2012-11-19 03:55:00
10:15 PM,55.4,32.0,41,30.16,10.0,SE,6.9,-,N/A,,Overcast,130,2012-11-19 04:15:00
10:35 PM,55.4,33.8,44,30.17,10.0,SSE,5.8,-,N/A,Rain,Light Rain,150,2012-11-19 04:35:00
10:55 PM,53.6,35.6,51,30.17,10.0,SE,4.6,-,N/A,,Overcast,140,2012-11-19 04:55:00
11:15 PM,53.6,35.6,51,30.17,10.0,SSE,6.9,-,N/A,,Overcast,150,2012-11-19 05:15:00
11:35 PM,53.6,35.6,51,30.16,10.0,SE,6.9,-,N/A,,Overcast,140,2012-11-19 05:35:00